DECAYED

SL-4 R/B, 58930 (Decayed)

Orbit data source: Space-Track

SL-4 R/B, 58930 was space debris in LEO originally from a launch on Fri, 09 Feb 2024 UTC launched from the Plesetsk Missile And Space Complex (PKMTR). Debris objects in space refer to the collection of defunct objects orbiting the Earth. Examples of debris include non-operational satellites, rocket bodies, and fragments generated from explosions, collisions, or faulty payload assembly.

Not visible in the next 10 days
Identifier
58930, 2024-026B
Orbit
Decayed
Country
Flag of CISCIS
Related business
Manufacturer
TsSKB-Progress
Mission
Decayed spacecraft
Bus & Motor
BLOK-I, RD-0110
Mass
Wet unknown, 2,350 kg dry
Launch date (UTC)
2024-02-09 (2 years ago)
Launch vehicle
Unknown
Launch site
Plesetsk Missile And Space Complex (PKMTR)
Object type
Payload
Rocket body
Debris
Shape & HBR
Unknown
Radar Cross Section
Large (>1 m²)

Expand to show TLE details & history
Last TLE update: 1 year ago

TLE from 1 year ago
0 SL-4 R/B
1 58930U 24027B   24162.59689719  .31737778  23207-5  12376-3 0  9993
2 58930  96.7292  60.1188 0011273 241.5955 203.7505 16.57784045 19392
Epoch: 2024-06-10T14:19Z
TLE epoch observation values (Epoch: 2024-06-10T14:19:31.917Z)
Latitude
81.83811°
Longitude
-109.07122°
Altitude
139.148 km
Speed
7.826 km/s
True Right ascension
00h 20m 58s
True Declination
81° 47' 06"
Sunlit
Object was in daylight at epoch
Visualization orbit readout
Latitude
Unknown
Longitude
Unknown
Altitude
Unknown
Speed
Unknown
Apparent Right ascension
Unknown
Apparent Declination
Unknown
Sunlit
N/A
Visualization observer readout
Local Sidereal Time
03:56:58
Azimuth
Unknown
Elevation
Unknown
Doppler factor
Unknown
Orbital elements
Apogee altitude
122.994 km
Perigee altitude
108.353 km
Semi-major axis
6,493.81 km
Eccentricity
0.00113
Inclination
96.7292°
RAAN
60.1188°
Arg. of periapsis
241.5955°
True anomaly
203.69854°
Mean anomaly
203.7505°
Eccentric anomaly
203.72451°
Mean motion
4.14757 °/min
Orbital period
86.8 mins
BSTAR
0.00012376
Loading maneuver chart data...
Computing Atmospheric mass density...
Loading historical data...
Loading historical data...
Loading historical data...
Loading historical data...
Loading historical data...
Loading historical data...
Loading historical data...
Other satellites on launch #26 in the year 2024 (2024-02-09 UTC)

Documentation

Showing up to 5 results
|